Voltar ao catálogo

ITASat 1

ITASAT

AtivoRádio AmadorSSO
NORAD 43786·PAYLOAD·🇧🇷 Brazil

Lançado Dec 3, 2018 de Vandenberg Space Force Base

Loading…

Próximas Passagens (próximas 24 horas)

TLE

AtualizadoSource: AMSAT

Época: Sep 14, 2026, 02:50 UTC

1 43786U 18099AE  26257.11805822  .00005342  00000-0  25051-3 0  9994
2 43786  97.3936 306.8722 0013328  47.6971 312.5391 15.20014418426413

Acompanhe ITASat 1 em tempo real com AllMySat

Download on the App Store